[[{"header":{"parameterUnit":"m.s-1","parameterCategory":1,"la1":30.2991,"la2":30.254,"lo1":-89.0895,"lo2":-89.0444,"dy":0.0017,"dx":0.0017,"nx":28,"ny":28,"refTime":"2025-07-07T21:00:00:Z","depth":0,"parameterNumber":2,"parameterNumberName":"U-component_of_WINDS"},"data":[0,0,0,0,0,0,0,0,0,0,0,0,0,0,0,0,0,0,0,0,0,0,0,0,0,0,0,0,0,0,0,0,0,0,0,0,0,0,0,0,0,0,0,0,0,0,0,0,0,0,0,0,0,0,0,0,0,0,0.1913,0.1914,0,0.194,0.194,0.194,0.1936,0.1935,0.1935,0.1935,0.1963,0.1964,0.1965,0,0,0,0,0,0,0,0,0,0,0,0,0,0.186,0.1861,0.1913,0.1914,0.1914,0.194,0.194,0.194,0.1936,0.1935,0.1935,0.1934,0.1962,0.1964,0.1965,0,0,0,0,0,0,0,0,0,0,0,0,0,0.1884,0.1861,0.1913,0.1915,0.1915,0.194,0.194,0.194,0.1936,0.1935,0.1935,0.1934,0.1962,0.1963,0.1965,0.199,0,0,0.1971,0.1971,0,0,0,0,0,0,0,0,0.1883,0.1886,0.1914,0.1915,0.1915,0.1934,0.1931,0.1957,0.1936,0.1928,0.1935,0.1934,0.1954,0.1956,0.1962,0.1991,0.1992,0.1971,0.1972,0.1972,0.1973,0,0,0,0,0,0,0,0.1881,0.1885,0.1924,0.1915,0.1915,0.1914,0.1917,0.1936,0.1945,0.1929,0.1929,0.1932,0.1954,0.1961,0.1963,0.1993,0.1971,0.1972,0.1973,0.1974,0.2042,0.2043,0,0,0,0,0,0,0.1879,0.1884,0.1923,0.1925,0.1897,0.1916,0.1919,0.1929,0.1944,0.1946,0.1932,0.1931,0.1958,0.1961,0.1964,0.1994,0.1972,0.1974,0.1975,0.2041,0.2042,0.2043,0,0,0,0,0,0,0.1878,0.1882,0.1922,0.1904,0.1909,0.1918,0.1928,0.1929,0.1936,0.1947,0.1948,0.1938,0.1958,0.1962,0.1983,0.1995,0.1975,0.1977,0.2041,0.2042,0.2043,0.2053,0,0,0,0,0,0,0.1876,0.1882,0.1891,0.1904,0.191,0.1941,0.1929,0.193,0.1939,0.1939,0.1953,0.1954,0.1957,0.1981,0.1985,0.1997,0.1978,0.204,0.2041,0.2042,0.2052,0.2055,0.2057,0,0,0,0,0,0.1874,0.1894,0.1892,0.1897,0.1922,0.1941,0.1944,0.1948,0.194,0.195,0.1956,0.1954,0.1992,0.1983,0.1988,0.2,0.2039,0.2041,0.2042,0.2051,0.2054,0.2057,0,0,0,0,0,0,0.1882,0.1895,0.1894,0.1918,0.1928,0.194,0.1953,0.1951,0.1964,0.1963,0.1966,0.1969,0.1991,0.1998,0.1987,0.2024,0.2015,0.2017,0.202,0.2023,0.2025,0.2023,0.1979,0,0,0,0,0,0.1887,0.1901,0.1912,0.1932,0.1937,0.1944,0.1953,0.1954,0.1965,0.197,0.1978,0.1989,0.2004,0.2014,0.2028,0.2053,0.2056,0.2064,0.2066,0.2068,0.207,0.2084,0.2087,0.2049,0.2049,0.2049,0,0,0.1897,0.1905,0.1914,0.1934,0.1942,0.1957,0.1948,0.1964,0.1976,0.1973,0.1993,0.2,0.2012,0.2036,0.2046,0.2042,0.2082,0.207,0.2072,0.2073,0.2086,0.209,0.2093,0.205,0.205,0.205,0,0,0.1922,0.193,0.1947,0.1956,0.1968,0.1973,0.1977,0.1989,0.1993,0.2014,0.2012,0.2025,0.205,0.2059,0.2067,0.2095,0.2093,0.2099,0.2113,0.2126,0.2129,0.2131,0.2141,0.2145,0.2102,0.2102,0.2102,0,0.1932,0.1955,0.1957,0.1973,0.1982,0.1979,0.1997,0.2005,0.2022,0.2028,0.2022,0.2053,0.2062,0.2087,0.2094,0.21,0.2105,0.2098,0.2128,0.2131,0.2133,0.2143,0.2146,0.2103,0.2102,0.2102,0.2102,0,0.1967,0.1982,0.1995,0.2011,0.2021,0.2038,0.2042,0.2052,0.2052,0.2057,0.2078,0.2088,0.2104,0.211,0.2111,0.2135,0.2132,0.2127,0.2117,0.2138,0.2146,0.215,0.2104,0.2103,0.2103,0.2103,0,0,0.1998,0.2015,0.2019,0.2026,0.204,0.2052,0.2068,0.2083,0.2092,0.2103,0.2117,0.2138,0.2134,0.2143,0.2144,0.2156,0.2177,0.2149,0.215,0.2154,0.2204,0.2208,0.2212,0.2175,0.2176,0.2176,0.2203,0,0.2025,0.2054,0.2057,0.2083,0.2097,0.2095,0.2109,0.2119,0.2124,0.2136,0.2142,0.2156,0.2149,0.2155,0.2166,0.2172,0.2187,0.217,0.2189,0.2189,0.2186,0.2217,0.2221,0.2245,0.2207,0.2207,0.2208,0,0.206,0.2072,0.21,0.2111,0.2117,0.213,0.2144,0.2156,0.2167,0.2169,0.2179,0.2179,0.2196,0.2185,0.2209,0.2197,0.2205,0.2209,0.221,0.2212,0.22,0.222,0.2253,0.2257,0.2213,0.2213,0.2212,0,0.208,0.2103,0.2123,0.2129,0.2142,0.2152,0.2158,0.2168,0.2176,0.2188,0.2194,0.2208,0.2216,0.2226,0.223,0.2222,0.2253,0.2243,0.2256,0.2256,0.2263,0.2263,0.2299,0.2268,0.2268,0.2267,0.2267,0,0.211,0.2127,0.2132,0.2144,0.2163,0.2166,0.2185,0.219,0.2199,0.2212,0.221,0.2223,0.2226,0.2239,0.2242,0.2261,0.2265,0.2267,0.2268,0.2267,0.2267,0.2273,0.2271,0.2268,0.2268,0.2268,0.2268,0,0.2136,0.214,0.2161,0.2172,0.2175,0.2189,0.2198,0.2209,0.2213,0.223,0.2234,0.224,0.2255,0.226,0.2278,0.228,0.2302,0.2301,0.2298,0.2298,0.2311,0.231,0.2352,0.2358,0.2323,0.2323,0.2324,0,0.2155,0.2168,0.218,0.2188,0.2194,0.2208,0.2217,0.2219,0.2229,0.2242,0.2252,0.2266,0.2278,0.2302,0.2309,0.2323,0.2322,0.2336,0.2324,0.2323,0.2322,0.2321,0.2323,0.2338,0.2338,0.2339,0.2339,0,0.2187,0.2188,0.2201,0.2214,0.2225,0.2236,0.2246,0.2253,0.2257,0.2267,0.2282,0.2291,0.231,0.2324,0.2338,0.2344,0.2342,0.2342,0.2346,0.2346,0.2344,0.2345,0.2304,0.2342,0.2341,0.2341,0.2341,0.2341,0.221,0.2222,0.2232,0.2246,0.2253,0.2263,0.2274,0.2279,0.2292,0.2307,0.2308,0.2324,0.2334,0.2352,0.2359,0.2372,0.2368,0.2373,0.2375,0.2376,0.2377,0.2342,0.2374,0.2374,0.2374,0.2374,0.2374,0,0.2243,0.2249,0.2262,0.2276,0.2287,0.2284,0.2295,0.2304,0.2319,0.2328,0.234,0.2357,0.2371,0.2378,0.2392,0.2401,0.24,0.2404,0.2404,0.2405,0.238,0.2375,0.2404,0.2404,0.2404,0.2404,0.2404,0.2404,0.2261,0.228,0.2283,0.2305,0.2311,0.2327,0.2334,0.2342,0.235,0.2369,0.2381,0.2385,0.2394,0.2408,0.242,0.2422,0.2427,0.2432,0.2433,0.241,0.2407,0.2404,0.24,0.2433,0.2433,0.2457,0.2457,0.2458]},{"header":{"parameterUnit":"m.s-1","parameterCategory":1,"la1":30.2991,"la2":30.254,"lo1":-89.0895,"lo2":-89.0444,"dy":0.0017,"dx":0.0017,"nx":28,"ny":28,"refTime":"2025-07-07T21:00:00:Z","depth":0,"parameterNumber":3,"parameterNumberName":"V-component_of_WINDS"},"data":[0,0,0,0,0,0,0,0,0,0,0,0,0,0,0,0,0,0,0,0,0,0,0,0,0,0,0,0,0,0,0,0,0,0,0,0,0,0,0,0,0,0,0,0,0,0,0,0,0,0,0,0,0,0,0,0,0,0,4.0413,4.0414,0,4.0473,4.0473,4.0474,4.0522,4.0523,4.0523,4.0524,4.0579,4.058,4.0581,0,0,0,0,0,0,0,0,0,0,0,0,0,4.0335,4.0336,4.0413,4.0414,4.0415,4.0473,4.0473,4.0474,4.0522,4.0523,4.0523,4.0524,4.0579,4.058,4.0581,0,0,0,0,0,0,0,0,0,0,0,0,0,4.0379,4.0337,4.0413,4.0446,4.0449,4.0472,4.0473,4.0474,4.0522,4.0523,4.0523,4.0524,4.0578,4.058,4.0581,4.0575,0,0,4.0586,4.0587,0,0,0,0,0,0,0,0,4.0377,4.0382,4.044,4.0443,4.0447,4.0491,4.0466,4.0508,4.0522,4.0494,4.0524,4.0525,4.0549,4.0553,4.0562,4.0578,4.058,4.0586,4.0587,4.0588,4.0588,0,0,0,0,0,0,0,4.0373,4.038,4.0437,4.0441,4.0445,4.0455,4.0462,4.0474,4.0516,4.0497,4.05,4.0507,4.0551,4.056,4.0564,4.0581,4.0586,4.0587,4.0588,4.0589,4.0593,4.0592,0,0,0,0,0,0,4.0366,4.0377,4.0435,4.0438,4.0413,4.0456,4.0464,4.0476,4.0516,4.0523,4.0506,4.0509,4.0558,4.0562,4.0566,4.056,4.0588,4.0589,4.059,4.0594,4.0593,4.0592,0,0,0,0,0,0,4.0364,4.0371,4.0432,4.0409,4.0417,4.0457,4.047,4.0477,4.0487,4.0524,4.0531,4.0509,4.0558,4.0564,4.0573,4.0563,4.059,4.0591,4.0595,4.0593,4.0592,4.055,0,0,0,0,0,0,4.0362,4.037,4.037,4.0408,4.0418,4.044,4.0469,4.0477,4.049,4.0494,4.0528,4.0534,4.0559,4.057,4.0574,4.0565,4.0592,4.0596,4.0594,4.0593,4.0552,4.0547,4.0543,0,0,0,0,0,4.0359,4.0354,4.0369,4.0376,4.0419,4.0439,4.0445,4.0475,4.0489,4.0488,4.0511,4.0533,4.0564,4.0571,4.0575,4.0567,4.0596,4.0595,4.0593,4.0554,4.0548,4.0543,0,0,0,0,0,0,4.0312,4.036,4.0377,4.0385,4.0408,4.0447,4.0447,4.0468,4.0486,4.0489,4.0524,4.0531,4.0536,4.0553,4.056,4.0563,4.0583,4.0582,4.0552,4.0546,4.0542,4.0537,4.0593,0,0,0,0,0,4.0303,4.0317,4.0357,4.0361,4.0371,4.0407,4.0417,4.0438,4.0463,4.0472,4.0496,4.0517,4.0531,4.054,4.0555,4.0555,4.0562,4.0551,4.0547,4.0543,4.0541,4.0541,4.0536,4.0586,4.0586,4.0586,0,0,4.0283,4.0311,4.0318,4.0352,4.0372,4.0384,4.0415,4.0426,4.0435,4.0473,4.0483,4.0501,4.0527,4.0531,4.0534,4.0545,4.0529,4.0541,4.0537,4.0538,4.0539,4.0534,4.053,4.0585,4.0585,4.0585,0,0,4.0254,4.0277,4.0282,4.0302,4.0332,4.0356,4.0357,4.0393,4.0407,4.0418,4.0447,4.0456,4.048,4.0497,4.0509,4.0485,4.0505,4.0488,4.0464,4.0463,4.0459,4.0456,4.0446,4.0442,4.0487,4.0487,4.0487,0,4.0225,4.0246,4.0281,4.0291,4.0304,4.0341,4.0345,4.0361,4.0394,4.0402,4.0414,4.0445,4.0464,4.0472,4.0466,4.0475,4.0475,4.0484,4.0458,4.0455,4.0452,4.0443,4.0439,4.0485,4.0485,4.0485,4.0485,0,4.0209,4.0223,4.0222,4.0255,4.0268,4.0275,4.0309,4.0317,4.0338,4.0359,4.0369,4.0394,4.0415,4.0418,4.0437,4.0428,4.0434,4.0451,4.0472,4.0444,4.0436,4.0433,4.0481,4.0482,4.0483,4.0483,0,0,4.0151,4.0203,4.0202,4.0217,4.0253,4.0263,4.027,4.0292,4.0298,4.0319,4.0325,4.0344,4.0361,4.0374,4.0395,4.0395,4.0372,4.0412,4.0413,4.0403,4.0361,4.0347,4.0343,4.0386,4.0386,4.0385,4.0359,0,4.0127,4.0144,4.0175,4.0181,4.0193,4.0228,4.0234,4.0256,4.0276,4.0288,4.0309,4.0322,4.0343,4.0351,4.0352,4.0375,4.0364,4.0377,4.039,4.039,4.0381,4.0339,4.0324,4.0298,4.0356,4.0355,4.0355,0,4.01,4.0121,4.0129,4.0163,4.0169,4.0174,4.0196,4.0207,4.0232,4.0246,4.0261,4.0284,4.0292,4.0311,4.0321,4.0329,4.0336,4.0348,4.0347,4.0349,4.037,4.0337,4.029,4.0286,4.0351,4.0351,4.0351,0,4.0056,4.0085,4.0094,4.0105,4.0146,4.0148,4.0165,4.019,4.0201,4.0219,4.0225,4.0244,4.0253,4.0266,4.0293,4.0305,4.0299,4.0321,4.031,4.0309,4.0306,4.0305,4.0258,4.0312,4.0312,4.0312,4.0312,0,4.0024,4.0027,4.0074,4.0079,4.0083,4.0117,4.012,4.0139,4.0161,4.0169,4.02,4.0206,4.0242,4.0252,4.0273,4.0277,4.0281,4.0292,4.0297,4.0289,4.0287,4.0293,4.0295,4.0311,4.0312,4.0312,4.0312,0,3.9975,4.0007,4.0018,4.0055,4.0065,4.0065,4.0097,4.0102,4.0124,4.0133,4.0137,4.0171,4.0184,4.0213,4.0234,4.0248,4.0246,4.0256,4.0238,4.0241,4.0227,4.0227,4.018,4.0175,4.0234,4.0233,4.0233,0,3.9952,3.9956,3.9994,4.0002,4.0018,4.003,4.0042,4.0075,4.0085,4.0113,4.0114,4.013,4.0144,4.0163,4.0188,4.0204,4.0214,4.0197,4.0217,4.0207,4.0212,4.0211,4.0211,4.0192,4.0191,4.019,4.019,0,3.9908,3.9923,3.9939,3.996,3.9973,3.9991,4.001,4.0014,4.0052,4.0061,4.0076,4.0087,4.0109,4.0123,4.0142,4.0157,4.0179,4.0184,4.0181,4.0172,4.016,4.0165,4.0224,4.0184,4.0185,4.0185,4.0185,4.0186,3.987,3.9874,3.9902,3.9918,3.9936,3.9953,3.9959,3.9983,3.9996,4.0017,4.0036,4.0048,4.0071,4.0099,4.0113,4.0122,4.0133,4.013,4.0129,4.0127,4.0123,4.016,4.0125,4.0126,4.0126,4.0126,4.0126,0,3.9827,3.9846,3.9861,3.9887,3.9899,3.992,3.9942,3.995,3.9961,3.9982,3.9996,4.0011,4.0026,4.0052,4.0068,4.007,4.008,4.0073,4.0072,4.0075,4.0113,4.0113,4.0064,4.0064,4.0064,4.0064,4.0064,4.0064,3.9805,3.9813,3.9831,3.9847,3.9866,3.988,3.989,3.9905,3.9922,3.9939,3.9951,3.9969,3.9991,4.0009,4.0022,4.0029,4.0033,4.0022,4.0032,4.0067,4.0073,4.0078,4.0078,4.0023,4.0023,3.9994,3.9994,3.9993]}]]